UAE440 OMDB-YPAD

Flight info

Callsign UAE440
Flight time N/A
Altitude 35000
Route ANVIX L223 TARDI N629 GIDAN P570 KITAL L894 BOLUR/N0497F370 L894 BIBGO DCT SOLIH/N0490F390 DCT 06S081E 10S085E 12S087E 18S093E 20S096E 23S101E/N0487F410 25S105E DCT BYLLA DCT 29S117E DCT SEVSI DCT 32S128E DCT KAMBI N640 ATNAR
Aircraft A359/H-SABDE2E3GHIJ1J2J3J4J5LM1OP2RVWXYZ/LB2D1

Departure

Time N/A
Airport Dubai International Airport (OMDB)

Arrival

Time 2026-05-07 23:56
Airport Adelaide International Airport (YPAD)
Time Latitude Longitude Altitude Speed Heading
2026-05-07 23:48 -34.73084 138.70295 5372 ft 236 kts 107°
2026-05-07 23:48 -34.73863 138.71889 5248 ft 213 kts 146°
2026-05-07 23:48 -34.75085 138.72844 5106 ft 206 kts 154°
2026-05-07 23:49 -34.76319 138.73761 4693 ft 211 kts 151°
2026-05-07 23:49 -34.77605 138.74603 4286 ft 206 kts 165°
2026-05-07 23:49 -34.78944 138.74777 3983 ft 187 kts 197°
2026-05-07 23:49 -34.80097 138.74184 3811 ft 175 kts 209°
2026-05-07 23:50 -34.81004 138.73312 3809 ft 159 kts 223°
2026-05-07 23:50 -34.81717 138.72346 3745 ft 151 kts 227°
2026-05-07 23:50 -34.82398 138.71388 3593 ft 149 kts 227°
2026-05-07 23:50 -34.83060 138.70423 3368 ft 148 kts 227°
2026-05-07 23:51 -34.83718 138.69459 3166 ft 148 kts 227°
2026-05-07 23:51 -34.84372 138.68504 2978 ft 146 kts 226°
2026-05-07 23:51 -34.85021 138.67560 2783 ft 146 kts 226°
2026-05-07 23:51 -34.85661 138.66626 2562 ft 146 kts 227°
2026-05-07 23:52 -34.86314 138.65670 2386 ft 147 kts 227°
2026-05-07 23:52 -34.86969 138.64710 2183 ft 147 kts 227°
2026-05-07 23:52 -34.87627 138.63747 1986 ft 149 kts 227°
2026-05-07 23:52 -34.88289 138.62778 1798 ft 149 kts 227°
2026-05-07 23:53 -34.88958 138.61814 1576 ft 149 kts 226°
2026-05-07 23:53 -34.89616 138.60866 1358 ft 141 kts 227°
2026-05-07 23:53 -34.90203 138.59966 1154 ft 132 kts 227°
2026-05-07 23:53 -34.90753 138.59133 1007 ft 121 kts 226°
2026-05-07 23:54 -34.91305 138.58353 853 ft 123 kts 225°
2026-05-07 23:54 -34.91858 138.57561 736 ft 125 kts 228°
2026-05-07 23:54 -34.92409 138.56747 578 ft 125 kts 229°
2026-05-07 23:54 -34.92958 138.55937 388 ft 124 kts 227°
2026-05-07 23:55 -34.93507 138.55142 239 ft 123 kts 229°
2026-05-07 23:55 -34.94042 138.54355 86 ft 123 kts 227°
2026-05-07 23:55 -34.94565 138.53597 28 ft 104 kts 229°
2026-05-07 23:55 -34.94946 138.53042 28 ft 80 kts 229°
2026-05-07 23:56 -34.95197 138.52679 27 ft 26 kts 230°
2026-05-07 23:56 -34.95235 138.52571 27 ft 13 kts 289°
2026-05-07 23:56 -34.95169 138.52487 26 ft 15 kts 324°
2026-05-07 23:56 -34.95069 138.52454 26 ft 16 kts
2026-05-07 23:57 -34.94964 138.52513 29 ft 19 kts 37°
2026-05-07 23:57 -34.94852 138.52618 31 ft 22 kts 37°
2026-05-07 23:57 -34.94723 138.52739 29 ft 25 kts 38°
2026-05-07 23:57 -34.94614 138.52844 27 ft 8 kts 37°
2026-05-07 23:58 -34.94564 138.52891 29 ft 10 kts 37°
2026-05-07 23:58 -34.94502 138.52950 29 ft 13 kts 39°
2026-05-07 23:58 -34.94438 138.53045 29 ft 16 kts 83°
2026-05-07 23:58 -34.94484 138.53165 30 ft 17 kts 123°
2026-05-07 23:59 -34.94512 138.53310 29 ft 19 kts 77°
2026-05-07 23:59 -34.94432 138.53451 29 ft 22 kts 50°
2026-05-07 23:59 -34.94328 138.53604 29 ft 25 kts 50°
2026-05-07 23:59 -34.94217 138.53763 30 ft 24 kts 50°
2026-05-08 00:00 -34.94138 138.53878 31 ft 15 kts 45°
2026-05-08 00:00 -34.94049 138.53888 31 ft 10 kts 357°
2026-05-08 00:00 -34.93995 138.53921 31 ft 6 kts 46°
2026-05-08 00:00 -34.93972 138.53950 32 ft 5 kts 37°
2026-05-08 00:01 -34.93941 138.53950 33 ft 4 kts 339°
2026-05-08 00:01 -34.93916 138.53926 33 ft 4 kts 321°
2026-05-08 00:01 -34.93901 138.53911 33 ft 3 kts 321°
2026-05-08 00:01 -34.93890 138.53900 33 ft 1 kts 320°
2026-05-08 00:02 -34.93887 138.53898 33 ft 0 kts 320°
2026-05-08 00:02 -34.93886 138.53897 33 ft 0 kts 320°